Location: Claflin County Park
(44.8478°N, 87.5507°W)
Time: 02:30:43
(UTC+00:00)

USA 234 - Pass Details

Date: 12 March 2026
Orbit: 1102 x 1106 km, 123.0° (Epoch: 4 January)

Event Time Altitude Azimuth Distance (km) Brightness Sun altitude
Exits shadow 02:25:33 47° 59° (ENE) 1,422 3.5 -27.5°
Maximum altitude 02:26:39 52° 27° (NNE) 1,343 3.6 -27.6°
Drops below altitude 10° 02:32:58 10° 313° (NW) 2,970 6.4 -28.6°
Sets 02:35:31 0° 309° (NW) 3,930 7.3 -29.0°
